Weather History for Grand Canyon, AZ

Change the Weather History Date:

Tuesday, January 15, 2013

  Actual Average Record
Temperature  
Mean Temperature 6 °F -  
Max Temperature 28 °F 44 °F 57 °F (2000)
Min Temperature -16 °F 16 °F -16 °F (2013)
Degree Days  
Heating Degree Days 59    
Moisture  
Dew Point -10 °F    
Average Humidity 54    
Maximum Humidity 75    
Minimum Humidity 26    
Precipitation  
Precipitation 0.00 in - - ()
Sea Level Pressure  
Sea Level Pressure 30.53 in    
Wind  
Wind Speed 2 mph (NE)    
Max Wind Speed 8 mph    
Max Gust Speed -    
Visibility 10 miles    
Events      
Averages and records for this station are not official NWS values.
T = Trace of Precipitation, MM = Missing Value Source: NWS Daily Summary

Daily Weather History Graph

Daily Weather History Graph

Search for Another Location

Airport:

Trip Planner

Search our weather history database for the weather conditions in past years. The results will help you decide how hot, cold, wet, or windy it might be!

Date:

Astronomy

Jan. 15, 2013 Rise Set
Actual Time 7:38 AM MST 5:38 PM MST
Civil Twilight 7:10 AM MST 6:06 PM MST
Nautical Twilight 6:38 AM MST 6:37 PM MST
Astronomical Twilight 6:08 AM MST 7:08 PM MST
Moon 9:55 AM MST (1/15) 10:21 PM MST (1/15)
Length of Visible Light 10h 55m
Length of Day
10h 00m
Waxing Crescent, 20% of the Moon is Illuminated
Jan 15
Waxing Crescent
Jan 18
First Quarter
Jan 26
Full
Feb 3
Last Quarter
Feb 10
New

Hourly Weather History & Observations

Time (MST) Temp. Windchill Dew Point Humidity Pressure Visibility Wind Dir Wind Speed Gust Speed Precip Events Conditions
12:54 AM -14.1 °F - -20.9 °F 71% 30.41 in 10.0 mi Calm Calm - N/A   Clear
1:54 AM -16.1 °F - -23.1 °F 71% 30.43 in 10.0 mi Calm Calm - N/A   Clear
2:54 AM -15.0 °F - -22.0 °F 71% 30.43 in 10.0 mi Calm Calm - N/A   Clear
3:54 AM -16.1 °F -26.2 °F -23.1 °F 71% 30.44 in 10.0 mi East 3.5 mph - N/A   Clear
4:54 AM -16.1 °F - -23.1 °F 71% 30.46 in 10.0 mi Calm Calm - N/A   Clear
5:54 AM -16.1 °F -26.2 °F -23.1 °F 71% 30.50 in 10.0 mi ENE 3.5 mph - N/A   Clear
6:54 AM -15.0 °F - -20.9 °F 75% 30.58 in 10.0 mi Calm Calm - N/A   Clear
7:54 AM -15.0 °F - -20.9 °F 75% 30.64 in 10.0 mi Calm Calm - N/A   Clear
8:54 AM -6.0 °F - -14.1 °F 68% 30.61 in 10.0 mi Calm Calm - N/A   Clear
9:54 AM 12.9 °F 2.6 °F -6.0 °F 43% 30.55 in 10.0 mi NE 6.9 mph - N/A   Clear
10:54 AM 21.9 °F 12.5 °F -5.1 °F 30% 30.53 in 10.0 mi NE 8.1 mph - N/A   Clear
11:54 AM 23.0 °F 14.7 °F -2.9 °F 32% 30.53 in 10.0 mi NE 6.9 mph - N/A   Clear
12:54 PM 25.0 °F 20.7 °F -4.0 °F 28% 30.49 in 10.0 mi SE 3.5 mph - N/A   Clear
1:54 PM 28.9 °F - -2.0 °F 26% 30.46 in 10.0 mi Calm Calm - N/A   Clear
2:54 PM 28.0 °F 21.7 °F -0.9 °F 29% 30.49 in 10.0 mi West 5.8 mph - N/A   Clear
3:54 PM 26.1 °F 20.5 °F -2.0 °F 30% 30.54 in 10.0 mi Variable 4.6 mph - N/A   Clear
4:54 PM 26.1 °F 20.5 °F 1.9 °F 35% 30.56 in 10.0 mi NE 4.6 mph - N/A   Clear
5:54 PM 19.9 °F 14.9 °F -0.0 °F 42% 30.60 in 10.0 mi NNE 3.5 mph - N/A   Clear
6:54 PM 18.0 °F 11.1 °F -0.9 °F 44% 30.62 in 10.0 mi NNE 4.6 mph - N/A   Clear
7:54 PM 10.0 °F - -0.9 °F 61% 30.68 in 10.0 mi Calm Calm - N/A   Clear
8:54 PM 8.1 °F -2.0 °F -2.0 °F 64% 30.63 in 10.0 mi ENE 5.8 mph - N/A   Clear
9:54 PM 6.1 °F - -2.9 °F 67% 30.55 in 10.0 mi Calm Calm - N/A   Clear
11:54 PM 3.9 °F -6.9 °F -4.0 °F 70% 30.53 in 10.0 mi ENE 5.8 mph - N/A   Clear